Location: Aragüita
(10.0436°N, 67.8028°W)
Time: 04:33:01
(UTC+00:00)

In-Cosmos 22 - Pass Details

Date: 14 April 2024
Orbit: 785 x 875 km, 81.2° (Epoch: 21 May)

Event Time Altitude Azimuth Distance (km) Brightness Sun altitude
Rises 09:28:01 0° 194° (SSW) 3,269 7.0 -13.6°
Reaches altitude 10° 09:30:24 10° 198° (SSW) 2,346 6.2 -13.1°
Maximum altitude 09:35:34 57° 276° (W) 930 4.1 -11.8°
Drops below altitude 10° 09:40:51 10° 354° (N) 2,386 6.6 -10.6°
Sets 09:43:18 0° 359° (N) 3,331 7.4 -10.0°
